Погода в Сопоте

Болгария     42°39′13″N   24°45′20″E
темп.,
°C
ветер,
м/с
пор.,
м/с
влажн.,
%
обл.,
%
осадки,
мм/ч
давл.,
гПа
погр.,
м
14 апреля, ср
ср1400:00+6ссв1196100 6.9 101476
03:00+4юз11923 6.9 101311
06:00+4юз119699 0.6 101311
09:00+6ссз2388100 1.9 1013422
12:00+4с339593 1.1 1015396
15:00+4с3493100 1.1 1015335
18:00+3с449196 0.0 1015439
21:00+1с3491100 0.1 1018266
15 апреля, чт
чт1500:00−1ссз119330 0.0 101999
03:00−1ссз11925 0.0 101919
06:00−2с229516 0.0 101950
09:00+2с22614 0.0 1019499
12:00+7с124880 0.0 10181404
15:00+8ссв235174 0.0 10161537
18:00+3с338198 0.1 1019603
21:00+1с238997 0.1 1021176
16 апреля, пт
пт1600:000с128473 0.0 1021134
03:00−2с12895 0.0 102226
06:00−2с1287100 0.0 102235
09:00+2ссв115651 0.0 1021418
12:00+7ссз02425 0.0 10201248
15:00+9св134651 0.0 10181666
18:00+7св1259100 0.0 1019979
21:00+4юв1182100 0.1 102012
17 апреля, сб
сб1700:00+4юв1285100 0.0 101960
03:00+4юв2489100 0.3 1018246
06:00+4юв2497100 1.0 1018298
09:00+3ююв359597 1.1 1018415
12:00+4ююв3596100 0.1 1017364
15:00+3ю3597100 3.1 1016313
18:00+3ююв349897 2.3 1015243
21:00+3ю2499100 2.3 1015212
18 апреля, вс
вс1800:00+3ю2399100 0.0 1015178
03:00+3ю239999 0.0 1015155
06:00+3ю2399100 0.0 1015151
09:00+4ю2398100 0.0 1015171
12:00+6ю229499 0.0 1015299
15:00+10ююз118092 0.1 1014606
18:00+8зюз1191100 0.1 1015333
21:00+7св1196100 0.1 1016208